Stations météo

réclame
Mon MeteoGroup
Koksijde, Belgique (6400): Température de l'air & dewpoint: 19.02.2018 22:00:00 - 25.02.2018 22:00:00 (CET)Koksijde, Belgique (6400): Vitesse du vent & gusts: 19.02.2018 22:00:00 - 25.02.2018 22:00:00 (CET)Koksijde, Belgique (6400): Direction du vent: 19.02.2018 22:00:00 - 25.02.2018 22:00:00 (CET)Koksijde, Belgique (6400): reduced air pressure: 19.02.2018 22:00:00 - 25.02.2018 22:00:00 (CET)Koksijde, Belgique (6400): visibility: 19.02.2018 22:00:00 - 25.02.2018 22:00:00 (CET)
Date & Time tt [°C] td [°C] ff [km/h] ff [knt] fx [km/h] fx [knt] dd ppp [hPa] vv [km]
25.02.2018 22:00:00 -2,1 -8,9 25 14 - - ENE 1029,2 20
25.02.2018 21:00:00 -1,9 -9,4 18 10 29 16 ENE 1029,2 20
25.02.2018 20:00:00 -1,5 -10,1 22 12 29 16 ENE 1028,7 20
25.02.2018 19:00:00 -0,8 -10,2 22 12 - - NE 1028,7 20
25.02.2018 18:00:00 0,1 -10,1 22 12 36 19 NE 1028,5 20
25.02.2018 17:00:00 1,2 -12,0 25 14 40 21 NE 1028,2 20
25.02.2018 16:00:00 1,8 -11,6 29 16 - - ENE 1028,0 20
25.02.2018 15:00:00 2,4 -10,9 25 14 36 19 ENE 1028,0 20
25.02.2018 14:00:00 2,1 -11,8 22 12 36 19 E 1028,4 20
25.02.2018 13:00:00 2,0 -11,3 22 12 - - ENE 1028,7 20
25.02.2018 12:00:00 0,7 -10,9 25 14 36 19 E 1028,7 20
25.02.2018 11:00:00 -0,7 -10,7 25 14 40 21 E 1028,7 20
25.02.2018 10:00:00 -1,7 -9,2 25 14 - - E 1028,5 19
25.02.2018 09:00:00 -2,8 -8,9 22 12 32 18 E 1028,0 20
25.02.2018 08:00:00 -3,7 -8,6 18 10 25 14 ENE 1028,0 20
25.02.2018 07:00:00 -3,6 -8,3 18 10 - - E 1027,2 20
25.02.2018 06:00:00 -3,3 -7,8 18 10 25 14 ENE 1026,7 20
25.02.2018 05:00:00 -3,1 -7,6 18 10 25 14 ENE 1026,5 20
25.02.2018 04:00:00 -2,7 -7,3 14 8 - - ENE 1026,2 20
25.02.2018 03:00:00 -2,0 -7,3 18 10 29 16 ENE 1026,0 20
25.02.2018 02:00:00 -1,8 -6,8 22 12 32 18 ENE 1025,7 20
25.02.2018 01:00:00 -1,4 -6,4 22 12 - - E 1025,7 20
25.02.2018 00:00:00 -0,9 -6,3 22 12 32 18 E 1025,7 20
24.02.2018 23:00:00 -0,6 -5,8 22 12 32 18 ENE 1025,2 20
24.02.2018 22:00:00 -0,2 -5,0 25 14 - - E 1024,9 20
24.02.2018 21:00:00 0,3 -4,6 25 14 40 21 ENE 1024,2 20
24.02.2018 20:00:00 0,9 -5,0 29 16 40 21 ENE 1023,8 20
24.02.2018 19:00:00 1,3 -4,5 25 14 - - ENE 1023,1 20
24.02.2018 18:00:00 2,9 -6,0 29 16 40 21 ENE 1022,5 20
24.02.2018 17:00:00 4,9 -6,6 22 12 43 23 ENE 1022,2 20
24.02.2018 16:00:00 5,4 -7,8 32 18 - - E 1022,2 20
24.02.2018 15:00:00 5,4 -8,9 32 18 43 23 E 1022,1 20
24.02.2018 14:00:00 4,7 -9,6 29 16 43 23 E 1022,2 20
24.02.2018 13:00:00 3,5 -10,0 29 16 - - E 1022,2 20
24.02.2018 12:00:00 2,2 -9,6 29 16 40 21 E 1022,6 20
24.02.2018 11:00:00 0,5 -9,9 25 14 40 21 E 1022,6 12
24.02.2018 10:00:00 -1,0 -9,1 22 12 - - E 1022,7 20
24.02.2018 09:00:00 -2,7 -8,2 18 10 29 16 E 1022,3 16
24.02.2018 08:00:00 -4,1 -7,7 14 8 22 12 E 1021,7 16
24.02.2018 07:00:00 -3,9 -7,3 14 8 - - E 1021,2 16
24.02.2018 06:00:00 -3,6 -6,8 14 8 25 14 E 1021,1 17
24.02.2018 05:00:00 -3,3 -6,5 14 8 22 12 ENE 1020,7 17
24.02.2018 04:00:00 -3,1 -5,9 14 8 - - ENE 1020,7 16
24.02.2018 03:00:00 -3,0 -5,5 14 8 18 10 ENE 1021,0 15
24.02.2018 02:00:00 -2,5 -5,4 14 8 22 12 ENE 1020,7 18
24.02.2018 01:00:00 -1,9 -5,5 18 10 - - ENE 1020,6 19
24.02.2018 00:00:00 -1,4 -5,3 18 10 22 12 E 1020,5 19
23.02.2018 23:00:00 -1,2 -5,0 18 10 25 14 ENE 1020,2 17
23.02.2018 22:00:00 -1,2 -4,3 14 8 - - ENE 1020,5 18
23.02.2018 21:00:00 -0,8 -4,8 14 8 22 12 ENE 1020,3 20
23.02.2018 20:00:00 -0,2 -4,8 14 8 22 12 ENE 1020,2 20
23.02.2018 19:00:00 0,4 -4,5 18 10 - - ENE 1020,1 19
23.02.2018 18:00:00 1,3 -4,0 22 12 36 19 ENE 1019,7 16
23.02.2018 17:00:00 2,5 -3,8 25 14 36 19 ENE 1019,7 14
23.02.2018 16:00:00 2,7 -3,9 25 14 - - ENE 1020,1 20
23.02.2018 15:00:00 3,0 -3,3 29 16 36 19 NE 1020,6 17
23.02.2018 14:00:00 3,0 -4,0 29 16 43 23 ENE 1021,0 20
23.02.2018 13:00:00 2,5 -4,0 29 16 - - ENE 1021,5 20
23.02.2018 12:00:00 1,9 -4,0 29 16 40 21 ENE 1022,0 20
23.02.2018 11:00:00 1,2 -4,8 25 14 40 21 E 1022,5 20
23.02.2018 10:00:00 0,2 -3,1 22 12 - - ENE 1022,7 12
23.02.2018 09:00:00 -1,2 -2,9 18 10 25 14 ENE 1022,7 8
23.02.2018 08:00:00 -2,1 -3,3 14 8 22 12 ENE 1022,7 7
23.02.2018 07:00:00 -2,4 -3,7 14 8 - - ENE 1022,3 8
23.02.2018 06:00:00 -2,1 -3,9 14 8 22 12 ENE 1022,2 10
23.02.2018 05:00:00 -2,0 -3,4 14 8 18 10 ENE 1022,2 9
23.02.2018 04:00:00 -1,7 -3,9 14 8 - - ENE 1022,2 12
23.02.2018 03:00:00 -1,5 -3,9 14 8 22 12 ENE 1022,6 14
23.02.2018 02:00:00 -0,9 -3,6 14 8 22 12 ENE 1023,0 14
23.02.2018 01:00:00 -0,7 -3,3 14 8 - - ENE 1023,0 13
23.02.2018 00:00:00 -0,3 -2,6 18 10 25 14 ENE 1023,2 14
22.02.2018 23:00:00 0,2 -2,6 22 12 29 16 ENE 1023,0 17
22.02.2018 22:00:00 0,8 -2,5 18 10 - - ENE 1023,1 20
22.02.2018 21:00:00 0,9 -1,9 18 10 25 14 NE 1022,7 15
22.02.2018 20:00:00 1,6 -3,5 18 10 29 16 ENE 1022,7 20
22.02.2018 19:00:00 1,7 -3,1 14 8 - - NE 1022,5 20
22.02.2018 18:00:00 2,9 -3,0 18 10 36 19 NE 1022,6 20
22.02.2018 17:00:00 3,7 -2,7 29 16 40 21 NE 1022,5 20
22.02.2018 16:00:00 4,4 -2,8 22 12 - - ENE 1022,7 20
22.02.2018 15:00:00 4,6 -3,0 25 14 32 18 ENE 1023,2 20
22.02.2018 14:00:00 4,5 -3,0 22 12 32 18 ENE 1023,7 20
22.02.2018 13:00:00 4,1 -2,9 22 12 - - ENE 1024,2 17
22.02.2018 12:00:00 3,0 -2,4 22 12 29 16 E 1024,4 16
22.02.2018 11:00:00 1,1 -2,8 18 10 25 14 ENE 1024,7 10
22.02.2018 10:00:00 0,1 -2,5 18 10 - - ENE 1024,5 8
22.02.2018 09:00:00 -1,0 -2,8 18 10 22 12 ENE 1024,5 7
22.02.2018 08:00:00 -1,8 -3,1 14 8 22 12 ENE 1024,2 6
22.02.2018 07:00:00 -1,6 -3,1 14 8 - - ENE 1024,0 7
22.02.2018 06:00:00 -1,2 -3,1 14 8 18 10 ENE 1023,8 8
22.02.2018 05:00:00 -0,9 -3,0 14 8 22 12 NE 1023,7 8
22.02.2018 04:00:00 -0,9 -2,8 14 8 - - NE 1024,0 7
22.02.2018 03:00:00 -0,8 -2,3 14 8 18 10 NE 1024,5 6
22.02.2018 02:00:00 -0,6 -2,1 11 6 18 10 NE 1024,7 5
22.02.2018 01:00:00 -0,2 -2,0 14 8 - - NE 1025,2 5
22.02.2018 00:00:00 0,2 -1,9 14 8 18 10 NE 1025,2 6
21.02.2018 23:00:00 0,6 -1,3 14 8 22 12 NE 1025,5 6
21.02.2018 22:00:00 0,9 -0,2 11 6 - - ENE 1025,5 4,0
21.02.2018 21:00:00 1,3 -0,9 11 6 18 10 NE 1025,5 6
21.02.2018 20:00:00 - - - - - - - - -
21.02.2018 19:00:00 2,4 -1,2 14 8 - - NE 1025,5 5
21.02.2018 18:00:00 2,7 -1,2 18 10 25 14 NNE 1025,0 7
21.02.2018 17:00:00 3,5 -0,5 22 12 29 16 NNE 1025,0 8
21.02.2018 16:00:00 4,1 -0,4 22 12 - - NNE 1025,2 8
21.02.2018 15:00:00 4,2 -1,2 18 10 29 16 NE 1025,9 8
21.02.2018 14:00:00 4,4 -0,6 22 12 29 16 NNE 1026,5 8
21.02.2018 13:00:00 4,4 -0,8 18 10 - - ENE 1027,0 7
21.02.2018 12:00:00 3,7 -0,5 18 10 25 14 ENE 1027,2 7
21.02.2018 11:00:00 3,1 -0,9 11 6 14 8 ENE 1027,2 7
21.02.2018 10:00:00 1,3 -0,7 11 6 - - ENE 1027,2 6
21.02.2018 09:00:00 0,4 0,0 7 4 14 8 ENE 1026,5 5
21.02.2018 08:00:00 0,0 -1,7 7 4 11 6 NE 1026,2 5
21.02.2018 07:00:00 0,3 -1,0 11 6 - - NE 1026,0 6
21.02.2018 06:00:00 -0,2 -1,4 11 6 14 8 NE 1026,0 6
21.02.2018 05:00:00 0,2 -1,3 11 6 14 8 NE 1025,7 5
21.02.2018 04:00:00 0,0 -0,9 11 6 - - NNE 1025,7 4,6
21.02.2018 03:00:00 -0,1 -0,9 11 6 14 8 NE 1025,2 3,7
21.02.2018 02:00:00 0,7 -0,3 11 6 14 8 NE 1025,0 4,6
21.02.2018 01:00:00 1,2 -0,1 11 6 - - NE 1024,5 4,8
21.02.2018 00:00:00 2,4 0,4 14 8 22 12 NE 1024,2 6
20.02.2018 23:00:00 2,2 0,9 11 6 22 12 NE 1023,5 5
20.02.2018 22:00:00 3,5 1,4 11 6 - - NE 1022,7 6
20.02.2018 21:00:00 3,0 1,5 14 8 18 10 NE 1022,2 5
20.02.2018 20:00:00 2,0 1,4 7 4 11 6 NE 1021,2 8
20.02.2018 19:00:00 2,9 1,6 4 2 - - N 1020,5 7
20.02.2018 18:00:00 3,9 3,3 11 6 14 8 NE 1020,1 4,0
20.02.2018 17:00:00 4,4 4,3 7 4 11 6 NNE 1019,5 3,5
20.02.2018 16:00:00 4,4 4,1 7 4 - - N 1019,2 3,5
20.02.2018 15:00:00 4,9 3,7 5 3 7 4 NNW 1018,8 3,5
20.02.2018 14:00:00 4,9 3,8 4 2 7 4 N 1019,2 5
20.02.2018 13:00:00 4,9 3,3 4 2 - - N 1019,5 6
20.02.2018 12:00:00 4,9 3,5 4 2 7 4 N 1019,2 6
20.02.2018 11:00:00 4,1 3,0 4 2 7 4 N 1019,3 4,5
20.02.2018 10:00:00 3,2 3,2 4 2 - - N 1019,2 3,5
20.02.2018 09:00:00 2,7 2,7 4 2 7 4 N 1019,1 2,9
20.02.2018 08:00:00 2,5 2,5 4 2 11 6 N 1018,7 2,2
20.02.2018 07:00:00 2,7 2,7 4 2 - - N 1018,7 2,2
20.02.2018 06:00:00 2,7 2,7 7 4 11 6 ESE 1017,8 2,0
20.02.2018 05:00:00 2,8 2,8 7 4 11 6 N 1017,7 3,0
20.02.2018 04:00:00 2,9 2,9 7 4 - - ESE 1017,6 3,5
20.02.2018 03:00:00 2,9 2,9 7 4 11 6 ESE 1017,3 3,0
20.02.2018 02:00:00 3,0 3,0 7 4 14 8 SE 1017,1 3,4
20.02.2018 01:00:00 3,1 3,1 7 4 - - ESE 1017,1 2,1
20.02.2018 00:00:00 3,2 3,2 11 6 18 10 ESE 1016,8 2,4
19.02.2018 23:00:00 3,5 3,5 11 6 18 10 SE 1016,5 2,6
19.02.2018 22:00:00 3,5 3,5 11 6 - - SSE 1016,3 3,2

tt = Température de l'air
td = dewpoint
ff = Vitesse du vent
fx = gusts
dd = Direction du vent
ppp = reduced air pressure
vv = visibility

stations d'obs. à proximité